| time (UTC) | temp F | wind direction | speed MPH | gust MPH | rain 1hr in | rain 24hr in | rain mn in | humidity % | barometer mb |
| 20260905231231 | 66 | 48 | 2.0 | 2.0 | 0.00 | 0.00 | 0.00 | 64 | |
| 20260905230231 | 66 | 0.0 | 0.0 | 0.00 | 0.00 | 0.00 | 64 | ||
| 20260905225231 | 65 | 0.0 | 0.0 | 0.00 | 0.00 | 0.00 | 65 | ||
| 20260905224230 | 65 | 0.0 | 0.0 | 0.00 | 0.00 | 0.00 | 65 | ||
| 20260905223230 | 65 | 278 | 1.0 | 1.0 | 0.00 | 0.00 | 0.00 | 65 | |
| 20260905222230 | 64 | 324 | 2.0 | 3.0 | 0.00 | 0.00 | 0.00 | 64 | |
| 20260905221313 | 63 | 0.0 | 0.0 | 0.00 | 0.00 | 0.00 | 66 | ||
| 20260905220251 | 62 | 0.0 | 0.0 | 0.00 | 0.00 | 0.00 | 67 | ||
| 20260905215231 | 62 | 0.0 | 0.0 | 0.00 | 0.00 | 0.00 | 68 | ||
| 20260905214230 | 62 | 0.0 | 0.0 | 0.00 | 0.00 | 0.00 | 67 | ||
| 20260905213231 | 62 | 0.0 | 0.0 | 0.00 | 0.00 | 0.00 | 66 | ||
| 20260905212230 | 63 | 0.0 | 0.0 | 0.00 | 0.00 | 0.00 | 66 | ||
| 20260905211231 | 64 | 0.0 | 0.0 | 0.00 | 0.00 | 0.00 | 65 | ||
| 20260905210231 | 65 | 0.0 | 0.0 | 0.00 | 0.00 | 0.00 | 60 | ||
| 20260905205231 | 66 | 0.0 | 0.0 | 0.00 | 0.00 | 0.00 | 59 | ||
| 20260905204231 | 66 | 0.0 | 0.0 | 0.00 | 0.00 | 0.00 | 59 | ||
| 20260905203231 | 67 | 0.0 | 0.0 | 0.00 | 0.00 | 0.00 | 59 | ||
| 20260905202230 | 67 | 24 | 2.0 | 3.0 | 0.00 | 0.00 | 0.00 | 57 | |
| 20260905201231 | 67 | 310 | 2.0 | 3.0 | 0.00 | 0.00 | 0.00 | 57 | |
| 20260905200231 | 67 | 330 | 2.0 | 3.0 | 0.00 | 0.00 | 0.00 | 59 | |
| 20260905195231 | 67 | 307 | 2.0 | 3.0 | 0.00 | 0.00 | 0.00 | 59 | |
| 20260905194230 | 67 | 0.0 | 0.0 | 0.00 | 0.00 | 0.00 | 60 | ||
| 20260905193231 | 67 | 276 | 1.0 | 2.0 | 0.00 | 0.00 | 0.00 | 61 | |
| 20260905192231 | 67 | 354 | 1.0 | 2.0 | 0.00 | 0.00 | 0.00 | 61 | |
| 20260905191231 | 67 | 0.0 | 0.0 | 0.00 | 0.00 | 0.00 | 62 | ||
| 20260905190231 | 67 | 58 | 0.0 | 2.0 | 0.00 | 0.00 | 0.00 | 62 | |
| 20260905185251 | 67 | 276 | 1.0 | 2.0 | 0.00 | 0.00 | 0.00 | 62 | |
| 20260905184233 | 67 | 312 | 0.0 | 2.0 | 0.00 | 0.00 | 0.00 | 62 | |
| 20260905183231 | 67 | 336 | 1.0 | 2.0 | 0.00 | 0.00 | 0.00 | 62 | |
| 20260905182219 | 67 | 270 | 1.0 | 1.0 | 0.00 | 0.00 | 0.00 | 61 | |
| 20260905181219 | 67 | 12 | 2.0 | 3.0 | 0.00 | 0.00 | 0.00 | 60 | |
| 20260905180238 | 67 | 0.0 | 0.0 | 0.00 | 0.00 | 0.00 | 59 | ||
| 20260905175219 | 67 | 294 | 1.0 | 2.0 | 0.00 | 0.00 | 0.00 | 59 | |
| 20260905174251 | 68 | 0.0 | 0.0 | 0.00 | 0.00 | 0.00 | 57 | ||
| 20260905173218 | 68 | 0.0 | 0.0 | 0.00 | 0.00 | 0.00 | 56 | ||
| 20260905172218 | 69 | 0.0 | 0.0 | 0.00 | 0.00 | 0.00 | 55 | ||
| 20260905171219 | 69 | 329 | 2.0 | 2.0 | 0.00 | 0.00 | 0.00 | 54 | |
| 20260905170218 | 70 | 301 | 2.0 | 3.0 | 0.00 | 0.00 | 0.00 | 53 | |
| 20260905165218 | 71 | 325 | 3.0 | 3.0 | 0.00 | 0.00 | 0.00 | 52 | |
| 20260905164219 | 71 | 274 | 2.0 | 3.0 | 0.00 | 0.00 | 0.00 | 51 | |
| 20260905163219 | 71 | 270 | 1.0 | 3.0 | 0.00 | 0.00 | 0.00 | 51 | |
| 20260905162218 | 72 | 67 | 2.0 | 3.0 | 0.00 | 0.00 | 0.00 | 50 | |
| 20260905161219 | 71 | 18 | 3.0 | 3.0 | 0.00 | 0.00 | 0.00 | 51 | |
| 20260905160219 | 72 | 319 | 3.0 | 3.0 | 0.00 | 0.00 | 0.00 | 51 | |
| 20260905155218 | 71 | 19 | 2.0 | 2.0 | 0.00 | 0.00 | 0.00 | 51 | |
| 20260905154219 | 71 | 333 | 3.0 | 5.0 | 0.00 | 0.00 | 0.00 | 51 | |
| 20260905153259 | 71 | 70 | 1.0 | 2.0 | 0.00 | 0.00 | 0.00 | 50 | |
| 20260905152219 | 71 | 34 | 1.0 | 2.0 | 0.00 | 0.00 | 0.00 | 50 | |
| 20260905151219 | 71 | 314 | 3.0 | 4.0 | 0.00 | 0.00 | 0.00 | 49 | |
| 20260905150219 | 71 | 328 | 2.0 | 2.0 | 0.00 | 0.00 | 0.00 | 48 | |
| 20260905145218 | 71 | 328 | 5.0 | 6.0 | 0.00 | 0.00 | 0.00 | 48 | |
| 20260905144219 | 71 | 342 | 2.0 | 3.0 | 0.00 | 0.00 | 0.00 | 46 | |
| 20260905143218 | 71 | 282 | 2.0 | 3.0 | 0.00 | 0.00 | 0.00 | 46 | |
| 20260905142219 | 71 | 276 | 1.0 | 2.0 | 0.00 | 0.00 | 0.00 | 47 | |
| 20260905141219 | 71 | 295 | 4.0 | 5.0 | 0.00 | 0.00 | 0.00 | 46 | |
| 20260905140219 | 71 | 351 | 3.0 | 4.0 | 0.00 | 0.00 | 0.00 | 46 | |
| 20260905135219 | 71 | 348 | 3.0 | 4.0 | 0.00 | 0.00 | 0.00 | 46 | |
| 20260905134219 | 71 | 292 | 6.0 | 6.0 | 0.00 | 0.00 | 0.00 | 45 | |
| 20260905133219 | 73 | 315 | 2.0 | 3.0 | 0.00 | 0.00 | 0.00 | 44 | |
| 20260905132219 | 73 | 328 | 5.0 | 7.0 | 0.00 | 0.00 | 0.00 | 43 | |
| 20260905131219 | 73 | 2 | 5.0 | 6.0 | 0.00 | 0.00 | 0.00 | 43 | |
| 20260905130219 | 73 | 303 | 3.0 | 4.0 | 0.00 | 0.00 | 0.00 | 42 | |
| 20260905125219 | 73 | 320 | 4.0 | 5.0 | 0.00 | 0.00 | 0.00 | 42 | |
| 20260905124219 | 73 | 305 | 6.0 | 6.0 | 0.00 | 0.00 | 0.00 | 42 | |
| 20260905123219 | 73 | 304 | 5.0 | 5.0 | 0.00 | 0.00 | 0.00 | 43 | |
| 20260905122219 | 73 | 303 | 4.0 | 5.0 | 0.00 | 0.00 | 0.00 | 44 | |
| 20260905121219 | 72 | 299 | 3.0 | 4.0 | 0.00 | 0.00 | 0.00 | 45 | |
| 20260905120250 | 71 | 352 | 5.0 | 6.0 | 0.00 | 0.00 | 0.00 | 47 | |
| 20260905115230 | 71 | 330 | 4.0 | 6.0 | 0.00 | 0.00 | 0.00 | 49 | |
| 20260905114230 | 70 | 318 | 4.0 | 5.0 | 0.00 | 0.00 | 0.00 | 50 | |
| 20260905113230 | 69 | 359 | 5.0 | 7.0 | 0.00 | 0.00 | 0.00 | 52 | |
| 20260905112231 | 67 | 300 | 0.0 | 1.0 | 0.00 | 0.00 | 0.00 | 60 | |
| 20260905111231 | 64 | 317 | 1.0 | 2.0 | 0.00 | 0.00 | 0.00 | 68 | |
| 20260905110230 | 63 | 270 | 0.0 | 1.0 | 0.00 | 0.00 | 0.00 | 72 | |
| 20260905105230 | 64 | 5 | 2.0 | 2.0 | 0.00 | 0.00 | 0.00 | 71 | |
| 20260905104230 | 67 | 288 | 3.0 | 4.0 | 0.00 | 0.00 | 0.00 | 55 | |
| 20260905103230 | 68 | 293 | 4.0 | 5.0 | 0.00 | 0.00 | 0.00 | 55 | |
| 20260905102230 | 69 | 356 | 5.0 | 5.0 | 0.00 | 0.00 | 0.00 | 49 | |
| 20260905101229 | 71 | 299 | 5.0 | 6.0 | 0.00 | 0.00 | 0.00 | 45 | |
| 20260905100232 | 71 | 337 | 3.0 | 4.0 | 0.00 | 0.00 | 0.00 | 46 | |
| 20260905095230 | 72 | 66 | 2.0 | 3.0 | 0.00 | 0.00 | 0.00 | 45 | |
| 20260905094230 | 73 | 321 | 4.0 | 5.0 | 0.00 | 0.00 | 0.00 | 44 | |
| 20260905093229 | 72 | 320 | 4.0 | 6.0 | 0.00 | 0.00 | 0.00 | 44 | |
| 20260905092229 | 71 | 322 | 3.0 | 4.0 | 0.00 | 0.00 | 0.00 | 47 | |
| 20260905091229 | 71 | 308 | 3.0 | 5.0 | 0.00 | 0.00 | 0.00 | 48 | |
| 20260905090229 | 71 | 308 | 3.0 | 4.0 | 0.00 | 0.00 | 0.00 | 47 | |
| 20260905085229 | 72 | 311 | 3.0 | 4.0 | 0.00 | 0.00 | 0.00 | 48 | |
| 20260905084229 | 72 | 322 | 3.0 | 5.0 | 0.00 | 0.00 | 0.00 | 50 | |
| 20260905083229 | 72 | 281 | 4.0 | 5.0 | 0.00 | 0.00 | 0.00 | 50 | |
| 20260905082249 | 72 | 263 | 2.0 | 3.0 | 0.00 | 0.00 | 0.00 | 51 | |
| 20260905081229 | 71 | 311 | 6.0 | 7.0 | 0.00 | 0.00 | 0.00 | 52 | |
| 20260905080229 | 72 | 334 | 5.0 | 9.0 | 0.00 | 0.00 | 0.00 | 53 | |
| 20260905075229 | 72 | 95 | 5.0 | 8.0 | 0.00 | 0.00 | 0.00 | 55 | |
| 20260905074229 | 72 | 310 | 6.0 | 7.0 | 0.00 | 0.00 | 0.00 | 57 | |
| 20260905073229 | 71 | 297 | 6.0 | 7.0 | 0.00 | 0.00 | 0.00 | 59 | |
| 20260905072229 | 71 | 290 | 5.0 | 7.0 | 0.00 | 0.00 | 0.00 | 59 | |
| 20260905071229 | 71 | 317 | 5.0 | 6.0 | 0.00 | 0.00 | 0.00 | 60 | |
| 20260905070229 | 72 | 318 | 5.0 | 7.0 | 0.00 | 0.00 | 0.00 | 59 | |
| 20260905065229 | 72 | 284 | 4.0 | 5.0 | 0.00 | 0.00 | 0.00 | 58 | |
| 20260905064229 | 73 | 284 | 4.0 | 6.0 | 0.00 | 0.00 | 0.00 | 58 | |
| 20260905063229 | 73 | 259 | 5.0 | 6.0 | 0.00 | 0.00 | 0.00 | 56 | |
| 20260905062229 | 74 | 331 | 4.0 | 5.0 | 0.00 | 0.00 | 0.00 | 55 | |
| 20260905061229 | 74 | 311 | 4.0 | 6.0 | 0.00 | 0.00 | 0.00 | 54 | |
| 20260905060229 | 75 | 316 | 4.0 | 6.0 | 0.00 | 0.00 | 0.00 | 51 | |
| 20260905055229 | 76 | 284 | 3.0 | 4.0 | 0.00 | 0.00 | 0.00 | 50 | |
| 20260905054229 | 76 | 36 | 1.0 | 2.0 | 0.00 | 0.00 | 0.00 | 50 | |
| 20260905053229 | 75 | 342 | 1.0 | 2.0 | 0.00 | 0.00 | 0.00 | 50 | |
| 20260905052229 | 74 | 297 | 2.0 | 3.0 | 0.00 | 0.00 | 0.00 | 51 | |
| 20260905051229 | 74 | 291 | 1.0 | 2.0 | 0.00 | 0.00 | 0.00 | 52 | |
| 20260905050229 | 73 | 0.0 | 0.0 | 0.00 | 0.00 | 0.00 | 53 | ||
| 20260905045251 | 70 | 0.0 | 0.0 | 0.00 | 0.00 | 0.00 | 56 | ||
| 20260905044229 | 68 | 0.0 | 0.0 | 0.00 | 0.00 | 0.00 | 63 | ||
| 20260905043229 | 67 | 0.0 | 0.0 | 0.00 | 0.00 | 0.00 | 66 | ||
| 20260905042229 | 67 | 0.0 | 0.0 | 0.00 | 0.00 | 0.00 | 66 | ||
| 20260905041229 | 66 | 0.0 | 0.0 | 0.00 | 0.00 | 0.00 | 67 | ||
| 20260905040229 | 67 | 0.0 | 0.0 | 0.00 | 0.00 | 0.00 | 67 | ||
| 20260905035229 | 67 | 0.0 | 0.0 | 0.00 | 0.00 | 0.00 | 66 | ||
| 20260905034229 | 67 | 0.0 | 0.0 | 0.00 | 0.00 | 0.00 | 65 | ||
| 20260905033250 | 68 | 0.0 | 0.0 | 0.00 | 0.00 | 0.00 | 64 | ||
| 20260905032229 | 69 | 0.0 | 0.0 | 0.00 | 0.00 | 0.00 | 63 | ||
| 20260905031231 | 69 | 0.0 | 0.0 | 0.00 | 0.00 | 0.00 | 63 | ||
| 20260905030229 | 69 | 0.0 | 0.0 | 0.00 | 0.00 | 0.00 | 62 | ||
| 20260905025229 | 69 | 0.0 | 0.0 | 0.00 | 0.00 | 0.00 | 62 | ||
| 20260905024229 | 69 | 0.0 | 0.0 | 0.00 | 0.00 | 0.00 | 62 | ||
| 20260905023249 | 70 | 0.0 | 0.0 | 0.00 | 0.00 | 0.00 | 61 | ||
| 20260905022229 | 70 | 0.0 | 0.0 | 0.00 | 0.00 | 0.00 | 60 | ||
| 20260905021229 | 71 | 0.0 | 0.0 | 0.00 | 0.00 | 0.00 | 59 | ||
| 20260905020229 | 71 | 0.0 | 0.0 | 0.00 | 0.00 | 0.00 | 58 | ||
| 20260905015229 | 71 | 0.0 | 0.0 | 0.00 | 0.00 | 0.00 | 57 | ||
| 20260905014229 | 72 | 0.0 | 0.0 | 0.00 | 0.00 | 0.00 | 56 | ||
| 20260905013229 | 72 | 300 | 0.0 | 2.0 | 0.00 | 0.00 | 0.00 | 55 | |
| 20260905012230 | 72 | 0.0 | 0.0 | 0.00 | 0.00 | 0.00 | 55 | ||
| 20260905011229 | 72 | 294 | 2.0 | 2.0 | 0.00 | 0.00 | 0.00 | 55 | |
| 20260905010230 | 72 | 90 | 1.0 | 2.0 | 0.00 | 0.00 | 0.00 | 54 | |
| 20260905005229 | 72 | 94 | 1.0 | 1.0 | 0.00 | 0.00 | 0.00 | 54 | |
| 20260905004230 | 73 | 0.0 | 0.0 | 0.00 | 0.00 | 0.00 | 52 | ||
| 20260905003229 | 73 | 0.0 | 0.0 | 0.00 | 0.00 | 0.00 | 51 | ||
| 20260905002230 | 74 | 0.0 | 0.0 | 0.00 | 0.00 | 0.00 | 51 | ||
| 20260905001229 | 74 | 0.0 | 0.0 | 0.00 | 0.00 | 0.00 | 50 | ||
| 20260905000250 | 74 | 48 | 0.0 | 1.0 | 0.00 | 0.00 | 0.00 | 49 | |
| 20260904235230 | 75 | 0.0 | 0.0 | 0.00 | 0.00 | 0.00 | 49 | ||
| 20260904234252 | 75 | 60 | 1.0 | 2.0 | 0.00 | 0.00 | 0.00 | 48 | |
| 20260904233230 | 75 | 102 | 1.0 | 2.0 | 0.00 | 0.00 | 0.00 | 48 | |
| 20260904232229 | 75 | 266 | 1.0 | 2.0 | 0.00 | 0.00 | 0.00 | 48 |